This demonstration page uses our WeatherBlox Daily Observations layout. Learn more.

Left ArrowRight Arrow

Hourly Observations for May 23, 2022

Temp ( °F °C ) Dew Point ( °F °C ) Humidity (%) Winds ( mph kmh ) Pressure ( in mb ) Visibility ( mi km ) Precip ( " mm )
12:56 am 00:56 Mostly Cloudy 56 13.6 32 0.2 40 40 E 5 7 30.35 1028 10 16 0.00 0.00
1:56 am 01:56 Mostly Cloudy 55 13 33 0.7 43 43 Calm 30.35 1028 10 16 0.00 0.00
2:56 am 02:56 Mostly Cloudy 54 12.4 33 0.5 44 44 ESE 3 6 30.33 1027 10 16 0.00 0.00
3:56 am 03:56 Cloudy 53 11.6 34 1 48 48 E 3 6 30.32 1027 10 16 0.00 0.00
4:56 am 04:56 Cloudy 53 11.4 34 1.3 50 50 E 3 6 30.31 1026 10 16 0.00 0.00
5:56 am 05:56 Mostly Cloudy 51 10.7 35 1.8 54 54 ENE 3 6 30.31 1026 10 16 0.00 0.00
6:56 am 06:56 Cloudy 52 11.1 36 2.1 54 54 E 3 6 30.32 1027 10 16 0.00 0.00
7:56 am 07:56 undefined 53 11.7 36 2.2 52 52 E 5 7 30.32 1027 10 16 0.00 0.00
8:56 am 08:56 undefined 54 12.3 36 2.4 51 51 E 6 9 30.32 1027 10 16 0.00 0.00
9:56 am 09:56 Partly Cloudy 58 14.4 38 3.5 48 48 ESE 6 9 30.32 1027 10 16 0.00 0.00
10:56 am 10:56 Mostly Cloudy 62 16.7 40 4.7 45 45 ENE 7 11 30.28 1025 10 16 0.00 0.00
11:56 am 11:56 Mostly Cloudy 64 17.5 39 4.1 41 41 ESE 10 17 30.27 1025 10 16 0.00 0.00
12:56 pm 12:56 undefined 64 17.5 35 1.9 35 35 ESE 7 11 30.26 1025 10 16 0.00 0.00
1:56 pm 13:56 Mostly Cloudy 65 18.3 33 0.4 30 30 E 8 13 30.24 1024 10 16 0.00 0.00
2:56 pm 14:56 Cloudy 65 18.6 33 0.7 30 30 E 8 13 30.22 1023 10 16 0.00 0.00
3:56 pm 15:56 Sunny 66 18.7 34 1.2 31 31 E 12 19 30.19 1022 10 16 0.00 0.00
4:56 pm 16:56 Cloudy 64 17.9 35 1.8 34 34 SE 15 24 30.19 1022 10 16 0.00 0.00
5:56 pm 17:56 Cloudy 63 17.1 35 1.9 36 36 ESE 10 17 30.18 1022 10 16 0.00 0.00
6:56 pm 18:56 Cloudy 62 16.6 33 0.3 33 33 E 9 15 30.17 1022 10 16 0.00 0.00
7:56 pm 19:56 Cloudy 61 16.2 33 0.3 34 34 E 6 9 30.17 1022 10 16 0.00 0.00
8:56 pm 20:56 Cloudy 60 15.6 34 1 37 37 E 3 6 30.19 1022 10 16 0.00 0.00
9:56 pm 21:56 Mostly Cloudy 58 14.6 36 2.2 43 43 E 3 6 30.19 1022 10 16 0.00 0.00
10:56 pm 22:56 Mostly Cloudy 58 14.3 35 1.6 42 42 E 5 7 30.18 1022 10 16 0.00 0.00
11:56 pm 23:56 Mostly Cloudy 56 13.4 35 1.4 44 44 E 3 6 30.18 1022 10 16 0.00 0.00

Powered by AerisWeather